| time (UTC) | temp C | wind direction | speed KPH | gust KPH | rain 1hr cm | rain 24hr cm | rain mn cm | humidity % | barometer mb |
| 20260506092218 | 7 | 0 | 0.0 | 0.0 | 0.10 | 2.59 | 0.43 | 95 | 1012.8 |
| 20260506091503 | 8 | 307 | 1.6 | 3.2 | 0.10 | 2.57 | 0.41 | 95 | 1012.5 |
| 20260506091003 | 8 | 307 | 0.0 | 3.2 | 0.13 | 2.57 | 0.41 | 95 | 1012.5 |
| 20260506090503 | 8 | 0 | 0.0 | 0.0 | 0.13 | 2.57 | 0.41 | 95 | 1012.4 |
| 20260506090003 | 8 | 0 | 0.0 | 0.0 | 0.15 | 2.57 | 0.41 | 95 | 1012.2 |
| 20260506085503 | 8 | 0 | 0.0 | 0.0 | 0.15 | 2.57 | 0.41 | 95 | 1012.1 |
| 20260506085003 | 8 | 0 | 0.0 | 0.0 | 0.18 | 2.57 | 0.41 | 95 | 1011.9 |
| 20260506084503 | 8 | 0 | 0.0 | 0.0 | 0.18 | 2.57 | 0.41 | 95 | 1012.1 |
| 20260506084003 | 8 | 0 | 0.0 | 0.0 | 0.18 | 2.54 | 0.38 | 96 | 1012.0 |
| 20260506083503 | 8 | 0 | 0.0 | 0.0 | 0.18 | 2.54 | 0.38 | 96 | 1012.2 |
| 20260506083003 | 8 | 0 | 0.0 | 0.0 | 0.18 | 2.51 | 0.36 | 95 | 1012.5 |
| 20260506082503 | 8 | 0 | 0.0 | 0.0 | 0.18 | 2.51 | 0.36 | 95 | 1012.7 |
| 20260506082003 | 8 | 0 | 0.0 | 0.0 | 0.15 | 2.49 | 0.33 | 95 | 1012.9 |
| 20260506081503 | 8 | 0 | 0.0 | 0.0 | 0.13 | 2.46 | 0.30 | 95 | 1012.8 |
| 20260506081003 | 8 | 0 | 0.0 | 0.0 | 0.13 | 2.44 | 0.28 | 95 | 1012.8 |
| 20260506080718 | 8 | 0 | 0.0 | 0.0 | 0.13 | 2.44 | 0.28 | 95 | 1012.7 |
| 20260506073503 | 8 | 0 | 0.0 | 0.0 | 0.05 | 2.36 | 0.20 | 95 | 1012.4 |
| 20260506073003 | 8 | 0 | 0.0 | 0.0 | 0.03 | 2.34 | 0.18 | 95 | 1012.3 |
| 20260506072503 | 8 | 0 | 0.0 | 0.0 | 0.03 | 2.34 | 0.18 | 95 | 1012.3 |
| 20260506072003 | 8 | 0 | 0.0 | 0.0 | 0.03 | 2.34 | 0.18 | 95 | 1012.4 |
| 20260506071503 | 7 | 0 | 0.0 | 0.0 | 0.03 | 2.34 | 0.18 | 95 | 1012.4 |
| 20260506071003 | 7 | 0 | 0.0 | 0.0 | 0.03 | 2.31 | 0.15 | 95 | 1012.4 |
| 20260506070503 | 7 | 0 | 0.0 | 0.0 | 0.03 | 2.31 | 0.15 | 95 | 1012.4 |
| 20260506062003 | 7 | 0 | 0.0 | 0.0 | 0.08 | 2.31 | 0.15 | 95 | 1012.5 |
| 20260506061717 | 7 | 0 | 0.0 | 0.0 | 0.08 | 2.31 | 0.15 | 95 | 1012.5 |
| 20260506061003 | 7 | 0 | 0.0 | 0.0 | 0.08 | 2.29 | 0.13 | 95 | 1012.5 |
| 20260506060717 | 7 | 0 | 0.0 | 0.0 | 0.08 | 2.29 | 0.13 | 95 | 1012.5 |
| 20260506051003 | 8 | 0 | 0.0 | 0.0 | 0.05 | 2.21 | 0.05 | 95 | 1013.0 |
| 20260506050717 | 8 | 307 | 0.0 | 3.2 | 0.05 | 2.21 | 0.05 | 95 | 1013.0 |
| 20260506045003 | 8 | 0 | 0.0 | 0.0 | 0.08 | 2.21 | 0.05 | 95 | 1013.1 |
| 20260506044503 | 8 | 0 | 0.0 | 0.0 | 0.08 | 2.21 | 0.05 | 95 | 1013.2 |
| 20260506044003 | 8 | 0 | 0.0 | 0.0 | 0.10 | 2.21 | 0.05 | 95 | 1013.2 |
| 20260506043503 | 8 | 307 | 0.0 | 1.6 | 0.08 | 2.18 | 0.03 | 95 | 1013.3 |
| 20260506043218 | 8 | 307 | 0.0 | 3.2 | 0.10 | 2.18 | 0.03 | 95 | 1013.3 |
| 20260506042717 | 8 | 307 | 0.0 | 3.2 | 0.10 | 2.18 | 0.03 | 95 | 1013.3 |
| 20260506042218 | 8 | 0 | 0.0 | 0.0 | 0.13 | 2.18 | 0.03 | 95 | 1013.4 |
| 20260506041503 | 8 | 0 | 0.0 | 0.0 | 0.15 | 2.18 | 0.03 | 95 | 1013.6 |
| 20260506041003 | 8 | 0 | 0.0 | 0.0 | 0.15 | 2.16 | 0.00 | 95 | 1013.7 |
| 20260506040503 | 9 | 0 | 0.0 | 0.0 | 0.18 | 2.16 | 0.00 | 95 | 1013.6 |
| 20260506040004 | 9 | 307 | 0.0 | 1.6 | 0.20 | 2.16 | 0.00 | 95 | 1013.7 |
| 20260506035717 | 9 | 307 | 0.0 | 1.6 | 0.20 | 2.16 | 2.16 | 95 | 1013.7 |
| 20260506035003 | 9 | 307 | 0.0 | 1.6 | 0.23 | 2.13 | 2.13 | 95 | 1013.6 |
| 20260506034503 | 9 | 307 | 0.0 | 3.2 | 0.25 | 2.13 | 2.13 | 95 | 1013.8 |
| 20260506034003 | 9 | 307 | 0.0 | 3.2 | 0.25 | 2.11 | 2.11 | 95 | 1013.8 |
| 20260506033503 | 9 | 0 | 0.0 | 0.0 | 0.28 | 2.11 | 2.11 | 95 | 1013.7 |
| 20260506033217 | 9 | 0 | 0.0 | 0.0 | 0.28 | 2.08 | 2.08 | 95 | 1013.7 |
| 20260506032503 | 9 | 0 | 0.0 | 0.0 | 0.30 | 2.08 | 2.08 | 95 | 1013.6 |
| 20260506032003 | 9 | 0 | 0.0 | 0.0 | 0.30 | 2.06 | 2.06 | 95 | 1013.6 |
| 20260506031503 | 9 | 0 | 0.0 | 0.0 | 0.30 | 2.03 | 2.03 | 95 | 1013.7 |
| 20260506031003 | 10 | 0 | 0.0 | 0.0 | 0.30 | 2.01 | 2.01 | 95 | 1013.8 |
| 20260506030503 | 10 | 0 | 0.0 | 0.0 | 0.30 | 1.98 | 1.98 | 95 | 1013.6 |
| 20260506030003 | 9 | 0 | 0.0 | 0.0 | 0.30 | 1.96 | 1.96 | 95 | 1013.6 |
| 20260506025503 | 10 | 0 | 0.0 | 0.0 | 0.33 | 1.96 | 1.96 | 95 | 1013.3 |
| 20260506025003 | 10 | 0 | 0.0 | 0.0 | 0.28 | 1.91 | 1.91 | 95 | 1013.4 |
| 20260506024503 | 10 | 0 | 0.0 | 0.0 | 0.28 | 1.88 | 1.88 | 95 | 1013.2 |
| 20260506024003 | 10 | 0 | 0.0 | 0.0 | 0.25 | 1.85 | 1.85 | 95 | 1013.2 |
| 20260506023718 | 10 | 0 | 0.0 | 0.0 | 0.25 | 1.85 | 1.85 | 95 | 1013.3 |
| 20260506023217 | 10 | 0 | 0.0 | 0.0 | 0.20 | 1.80 | 1.80 | 95 | 1013.2 |
| 20260506022503 | 10 | 0 | 0.0 | 0.0 | 0.20 | 1.78 | 1.78 | 95 | 1013.3 |
| 20260506022003 | 10 | 0 | 0.0 | 0.0 | 0.18 | 1.75 | 1.75 | 95 | 1013.3 |
| 20260506021503 | 10 | 0 | 0.0 | 0.0 | 0.15 | 1.73 | 1.73 | 95 | 1013.3 |
| 20260506021003 | 10 | 0 | 0.0 | 0.0 | 0.13 | 1.70 | 1.70 | 95 | 1013.3 |
| 20260506020503 | 10 | 0 | 0.0 | 0.0 | 0.10 | 1.68 | 1.68 | 95 | 1013.3 |
| 20260506020217 | 10 | 0 | 0.0 | 0.0 | 0.13 | 1.68 | 1.68 | 95 | 1013.3 |
| 20260506015503 | 10 | 307 | 0.0 | 1.6 | 0.08 | 1.63 | 1.63 | 95 | 1013.3 |
| 20260506015217 | 10 | 307 | 0.0 | 3.2 | 0.08 | 1.63 | 1.63 | 95 | 1013.3 |
| 20260506014503 | 10 | 307 | 0.0 | 3.2 | 0.08 | 1.60 | 1.60 | 95 | 1013.2 |
| 20260506014003 | 10 | 0 | 0.0 | 0.0 | 0.10 | 1.60 | 1.60 | 95 | 1013.1 |
| 20260506013503 | 10 | 0 | 0.0 | 0.0 | 0.10 | 1.60 | 1.60 | 95 | 1013.0 |
| 20260506013003 | 10 | 0 | 0.0 | 0.0 | 0.10 | 1.60 | 1.60 | 95 | 1012.9 |
| 20260506012503 | 10 | 0 | 0.0 | 0.0 | 0.08 | 1.57 | 1.57 | 95 | 1012.9 |
| 20260506012217 | 10 | 0 | 0.0 | 0.0 | 0.08 | 1.57 | 1.57 | 95 | 1012.9 |
| 20260506011718 | 10 | 0 | 0.0 | 0.0 | 0.08 | 1.57 | 1.57 | 94 | 1012.9 |
| 20260506011003 | 10 | 307 | 0.0 | 3.2 | 0.08 | 1.57 | 1.57 | 94 | 1012.9 |
| 20260506010718 | 10 | 307 | 0.0 | 3.2 | 0.08 | 1.57 | 1.57 | 94 | 1012.9 |
| 20260506010216 | 10 | 307 | 0.0 | 3.2 | 0.05 | 1.55 | 1.55 | 94 | 1012.7 |
| 20260506005503 | 10 | 0 | 0.0 | 0.0 | 0.05 | 1.55 | 1.55 | 95 | 1012.8 |
| 20260506005003 | 10 | 307 | 0.0 | 3.2 | 0.03 | 1.52 | 1.52 | 95 | 1012.8 |
| 20260506004503 | 10 | 307 | 0.0 | 3.2 | 0.05 | 1.52 | 1.52 | 94 | 1012.7 |
| 20260506004003 | 10 | 0 | 0.0 | 0.0 | 0.03 | 1.50 | 1.50 | 94 | 1012.6 |
| 20260506003503 | 10 | 0 | 0.0 | 0.0 | 0.05 | 1.50 | 1.50 | 94 | 1012.7 |
| 20260506003003 | 10 | 0 | 0.0 | 0.0 | 0.05 | 1.50 | 1.50 | 94 | 1012.6 |
| 20260506002503 | 10 | 0 | 0.0 | 0.0 | 0.08 | 1.50 | 1.50 | 94 | 1012.6 |
| 20260506002003 | 10 | 307 | 0.0 | 3.2 | 0.10 | 1.50 | 1.50 | 94 | 1012.6 |
| 20260506001503 | 10 | 307 | 0.0 | 3.2 | 0.15 | 1.50 | 1.50 | 94 | 1012.4 |
| 20260506001003 | 10 | 307 | 1.6 | 4.8 | 0.20 | 1.50 | 1.50 | 94 | 1012.3 |
| 20260506000503 | 10 | 307 | 1.6 | 4.8 | 0.25 | 1.50 | 1.50 | 94 | 1012.3 |
| 20260506000003 | 10 | 307 | 1.6 | 4.8 | 0.28 | 1.50 | 1.50 | 94 | 1012.4 |
| 20260505235503 | 10 | 307 | 0.0 | 4.8 | 0.28 | 1.50 | 1.50 | 94 | 1012.6 |
| 20260505235003 | 10 | 307 | 1.6 | 4.8 | 0.30 | 1.50 | 1.50 | 94 | 1012.6 |
| 20260505234503 | 10 | 306 | 1.6 | 6.4 | 0.28 | 1.47 | 1.47 | 94 | 1013.0 |
| 20260505234003 | 10 | 290 | 1.6 | 8.0 | 0.30 | 1.47 | 1.47 | 94 | 1012.9 |
| 20260505233503 | 10 | 277 | 1.6 | 8.0 | 0.33 | 1.45 | 1.45 | 94 | 1012.9 |
| 20260505233003 | 10 | 263 | 0.0 | 1.6 | 0.38 | 1.45 | 1.45 | 94 | 1012.9 |
| 20260505232717 | 10 | 263 | 0.0 | 3.2 | 0.41 | 1.45 | 1.45 | 94 | 1013.0 |
| 20260505232218 | 10 | 263 | 0.0 | 4.8 | 0.41 | 1.42 | 1.42 | 94 | 1013.0 |
| 20260505231503 | 10 | 263 | 0.0 | 4.8 | 0.38 | 1.35 | 1.35 | 94 | 1013.3 |
| 20260505231003 | 10 | 263 | 0.0 | 1.6 | 0.36 | 1.30 | 1.30 | 94 | 1013.0 |
| 20260505230503 | 10 | 263 | 0.0 | 3.2 | 0.33 | 1.24 | 1.24 | 94 | 1012.7 |
| 20260505230003 | 10 | 263 | 0.0 | 3.2 | 0.36 | 1.22 | 1.22 | 94 | 1012.8 |
| 20260505225503 | 10 | 263 | 0.0 | 3.2 | 0.38 | 1.22 | 1.22 | 94 | 1012.9 |
| 20260505225003 | 10 | 263 | 0.0 | 1.6 | 0.36 | 1.19 | 1.19 | 94 | 1012.9 |
| 20260505224503 | 10 | 263 | 1.6 | 3.2 | 0.38 | 1.19 | 1.19 | 94 | 1013.0 |
| 20260505224003 | 10 | 263 | 1.6 | 3.2 | 0.38 | 1.17 | 1.17 | 94 | 1013.2 |
| 20260505223503 | 10 | 263 | 0.0 | 3.2 | 0.38 | 1.12 | 1.14 | 94 | 1013.0 |
| 20260505223218 | 10 | 0 | 0.0 | 0.0 | 0.36 | 1.09 | 1.09 | 94 | 1012.9 |
| 20260505222716 | 10 | 263 | 0.0 | 1.6 | 0.33 | 1.04 | 1.04 | 94 | 1013.0 |
| 20260505222003 | 10 | 263 | 0.0 | 3.2 | 0.30 | 0.99 | 0.99 | 94 | 1012.7 |
| 20260505221503 | 10 | 263 | 1.6 | 4.8 | 0.30 | 0.97 | 0.97 | 93 | 1013.0 |
| 20260505221003 | 10 | 263 | 0.0 | 4.8 | 0.33 | 0.94 | 0.94 | 93 | 1013.0 |
| 20260505220503 | 10 | 263 | 0.0 | 4.8 | 0.33 | 0.91 | 0.91 | 93 | 1012.8 |
| 20260505220003 | 10 | 263 | 1.6 | 4.8 | 0.33 | 0.86 | 0.86 | 93 | 1012.9 |
| 20260505215503 | 10 | 263 | 0.0 | 3.2 | 0.30 | 0.84 | 0.84 | 93 | 1012.7 |
| 20260505215003 | 10 | 0 | 0.0 | 0.0 | 0.33 | 0.84 | 0.84 | 93 | 1012.7 |
| 20260505214716 | 10 | 0 | 0.0 | 0.0 | 0.33 | 0.81 | 0.81 | 93 | 1012.9 |
| 20260505214003 | 10 | 263 | 0.0 | 4.8 | 0.33 | 0.79 | 0.79 | 93 | 1012.9 |
| 20260505213503 | 10 | 263 | 1.6 | 4.8 | 0.33 | 0.74 | 0.74 | 92 | 1012.8 |
| 20260505213003 | 10 | 263 | 1.6 | 4.8 | 0.38 | 0.74 | 0.74 | 92 | 1013.1 |
| 20260505212503 | 10 | 263 | 0.0 | 4.8 | 0.38 | 0.71 | 0.71 | 93 | 1012.7 |
| 20260505212003 | 10 | 263 | 1.6 | 6.4 | 0.38 | 0.69 | 0.69 | 93 | 1012.7 |
| 20260505211503 | 10 | 263 | 1.6 | 9.7 | 0.38 | 0.66 | 0.66 | 93 | 1012.5 |
| 20260505211003 | 11 | 263 | 1.6 | 9.7 | 0.36 | 0.61 | 0.61 | 93 | 1012.7 |
| 20260505210503 | 11 | 263 | 1.6 | 4.8 | 0.36 | 0.58 | 0.58 | 92 | 1012.7 |
| 20260505210003 | 11 | 263 | 1.6 | 4.8 | 0.33 | 0.53 | 0.56 | 92 | 1012.6 |
| 20260505205503 | 11 | 263 | 3.2 | 9.7 | 0.38 | 0.53 | 0.53 | 92 | 1012.6 |
| 20260505205217 | 11 | 263 | 3.2 | 12.9 | 0.36 | 0.51 | 0.51 | 92 | 1012.6 |
| 20260505204503 | 11 | 263 | 3.2 | 12.9 | 0.41 | 0.48 | 0.48 | 92 | 1012.4 |
| 20260505204217 | 11 | 263 | 3.2 | 9.7 | 0.38 | 0.46 | 0.46 | 92 | 1012.4 |
| 20260505203503 | 12 | 263 | 3.2 | 12.9 | 0.36 | 0.41 | 0.41 | 91 | 1012.5 |
| 20260505203003 | 12 | 264 | 3.2 | 9.7 | 0.33 | 0.36 | 0.36 | 92 | 1012.3 |
| 20260505202718 | 12 | 264 | 3.2 | 9.7 | 0.30 | 0.33 | 0.33 | 92 | 1012.2 |
| 20260505202003 | 12 | 264 | 3.2 | 14.5 | 0.28 | 0.30 | 0.30 | 92 | 1012.2 |
| 20260505201503 | 12 | 264 | 4.8 | 14.5 | 0.28 | 0.28 | 0.28 | 91 | 1012.2 |
| 20260505201003 | 12 | 264 | 3.2 | 6.4 | 0.25 | 0.25 | 0.25 | 91 | 1012.3 |
| 20260505200503 | 12 | 264 | 1.6 | 6.4 | 0.23 | 0.23 | 0.23 | 90 | 1012.2 |
| 20260505200003 | 12 | 264 | 3.2 | 6.4 | 0.20 | 0.20 | 0.20 | 90 | 1012.4 |
| 20260505195503 | 13 | 264 | 3.2 | 6.4 | 0.15 | 0.15 | 0.15 | 89 | 1012.5 |
| 20260505195003 | 13 | 264 | 1.6 | 4.8 | 0.13 | 0.13 | 0.13 | 89 | 1012.4 |
| 20260505194503 | 13 | 264 | 1.6 | 4.8 | 0.08 | 0.08 | 0.08 | 89 | 1012.4 |
| 20260505194003 | 13 | 264 | 1.6 | 4.8 | 0.05 | 0.05 | 0.05 | 88 | 1012.4 |
| 20260505193503 | 13 | 264 | 1.6 | 4.8 | 0.05 | 0.05 | 0.05 | 88 | 1012.4 |
| 20260505193003 | 13 | 264 | 1.6 | 4.8 | 0.03 | 0.03 | 0.03 | 87 | 1012.4 |
| 20260505192503 | 13 | 264 | 1.6 | 6.4 | 0.03 | 0.03 | 0.03 | 86 | 1012.3 |
| 20260505192003 | 13 | 264 | 3.2 | 11.3 | 0.03 | 0.03 | 0.03 | 86 | 1012.3 |
| 20260505191503 | 13 | 264 | 3.2 | 11.3 | 0.00 | 0.00 | 0.00 | 85 | 1012.4 |
| 20260505191003 | 14 | 264 | 3.2 | 11.3 | 0.00 | 0.00 | 0.00 | 85 | 1012.3 |
| 20260505190503 | 14 | 264 | 3.2 | 9.7 | 0.00 | 0.00 | 0.00 | 84 | 1012.3 |
| 20260505190003 | 14 | 274 | 1.6 | 6.4 | 0.00 | 0.00 | 0.00 | 84 | 1012.3 |
| 20260505185503 | 15 | 312 | 3.2 | 14.5 | 0.00 | 0.00 | 0.00 | 82 | 1012.2 |
| 20260505185003 | 15 | 297 | 4.8 | 14.5 | 0.00 | 0.00 | 0.00 | 81 | 1012.4 |
| 20260505184717 | 15 | 266 | 3.2 | 9.7 | 0.00 | 0.00 | 0.00 | 82 | 1012.5 |
| 20260505184003 | 15 | 265 | 3.2 | 11.3 | 0.00 | 0.00 | 0.00 | 81 | 1012.4 |
| 20260505183503 | 15 | 265 | 3.2 | 11.3 | 0.00 | 0.00 | 0.00 | 81 | 1012.4 |
| 20260505183003 | 15 | 265 | 3.2 | 11.3 | 0.00 | 0.00 | 0.00 | 82 | 1012.4 |
| 20260505182503 | 15 | 265 | 3.2 | 11.3 | 0.00 | 0.00 | 0.00 | 82 | 1012.4 |
| 20260505182218 | 15 | 281 | 3.2 | 6.4 | 0.00 | 0.00 | 0.00 | 82 | 1012.4 |
| 20260505181503 | 15 | 340 | 4.8 | 14.5 | 0.00 | 0.00 | 0.00 | 81 | 1012.4 |
| 20260505181218 | 15 | 328 | 4.8 | 14.5 | 0.00 | 0.00 | 0.00 | 80 | 1012.3 |
| 20260505180717 | 15 | 269 | 3.2 | 11.3 | 0.00 | 0.00 | 0.00 | 81 | 1012.3 |
| 20260505180003 | 15 | 265 | 4.8 | 14.5 | 0.00 | 0.00 | 0.00 | 80 | 1012.1 |
| 20260505175503 | 15 | 256 | 4.8 | 12.9 | 0.00 | 0.00 | 0.00 | 80 | 1012.1 |
| 20260505175003 | 15 | 257 | 4.8 | 12.9 | 0.00 | 0.00 | 0.00 | 80 | 1012.1 |
| 20260505174717 | 15 | 263 | 4.8 | 11.3 | 0.00 | 0.00 | 0.00 | 79 | 1012.1 |
| 20260505174218 | 16 | 266 | 4.8 | 12.9 | 0.00 | 0.00 | 0.00 | 79 | 1012.0 |
| 20260505173503 | 16 | 266 | 4.8 | 17.7 | 0.00 | 0.00 | 0.00 | 78 | 1012.0 |
| 20260505173218 | 16 | 267 | 3.2 | 17.7 | 0.00 | 0.00 | 0.00 | 78 | 1012.0 |
| 20260505172503 | 16 | 267 | 4.8 | 11.3 | 0.00 | 0.00 | 0.00 | 79 | 1011.8 |
| 20260505172003 | 16 | 267 | 4.8 | 11.3 | 0.00 | 0.00 | 0.00 | 78 | 1011.9 |
| 20260505171503 | 16 | 268 | 4.8 | 12.9 | 0.00 | 0.00 | 0.00 | 78 | 1011.9 |
| 20260505171003 | 16 | 269 | 4.8 | 12.9 | 0.00 | 0.00 | 0.00 | 78 | 1011.8 |
| 20260505170503 | 16 | 272 | 4.8 | 11.3 | 0.00 | 0.00 | 0.00 | 77 | 1011.8 |
| 20260505170003 | 16 | 270 | 4.8 | 17.7 | 0.00 | 0.00 | 0.00 | 77 | 1011.8 |
| 20260505165503 | 16 | 266 | 4.8 | 17.7 | 0.00 | 0.00 | 0.00 | 76 | 1011.7 |
| 20260505165217 | 16 | 265 | 4.8 | 12.9 | 0.00 | 0.00 | 0.00 | 76 | 1011.8 |
| 20260505164503 | 16 | 265 | 4.8 | 12.9 | 0.00 | 0.00 | 0.00 | 76 | 1011.7 |
| 20260505164003 | 16 | 265 | 4.8 | 19.3 | 0.00 | 0.00 | 0.00 | 76 | 1011.7 |
| 20260505163503 | 16 | 265 | 6.4 | 19.3 | 0.00 | 0.00 | 0.00 | 75 | 1011.6 |
| 20260505163003 | 16 | 268 | 8.0 | 16.1 | 0.00 | 0.00 | 0.00 | 74 | 1011.5 |
| 20260505162503 | 17 | 273 | 8.0 | 17.7 | 0.00 | 0.00 | 0.00 | 73 | 1011.5 |
| 20260505162003 | 17 | 296 | 9.7 | 30.6 | 0.00 | 0.00 | 0.00 | 70 | 1011.6 |
| 20260505161503 | 18 | 305 | 9.7 | 30.6 | 0.00 | 0.00 | 0.00 | 68 | 1011.6 |
| 20260505161217 | 18 | 305 | 9.7 | 22.5 | 0.00 | 0.00 | 0.00 | 68 | 1011.6 |
| 20260505160503 | 18 | 280 | 9.7 | 27.4 | 0.00 | 0.00 | 0.00 | 67 | 1011.5 |
| 20260505153217 | 20 | 254 | 6.4 | 12.9 | 0.00 | 0.00 | 0.00 | 63 | 1010.6 |
| 20260505152718 | 20 | 254 | 4.8 | 12.9 | 0.00 | 0.00 | 0.00 | 64 | 1010.4 |
| 20260505152003 | 20 | 231 | 6.4 | 17.7 | 0.00 | 0.00 | 0.00 | 63 | 1010.2 |
| 20260505151503 | 20 | 210 | 8.0 | 25.7 | 0.00 | 0.00 | 0.00 | 64 | 1010.3 |
| 20260505151003 | 20 | 217 | 6.4 | 25.7 | 0.00 | 0.00 | 0.00 | 65 | 1010.3 |
| 20260505150503 | 19 | 249 | 6.4 | 12.9 | 0.00 | 0.00 | 0.00 | 66 | 1010.3 |
| 20260505140503 | 20 | 201 | 11.3 | 30.6 | 0.00 | 0.00 | 0.00 | 65 | 1009.6 |
| 20260505125003 | 17 | 199 | 11.3 | 30.6 | 0.00 | 0.00 | 0.00 | 68 | 1009.9 |
| 20260505124503 | 17 | 193 | 12.9 | 30.6 | 0.00 | 0.00 | 0.00 | 67 | 1009.8 |
| 20260505124003 | 17 | 197 | 11.3 | 25.7 | 0.00 | 0.00 | 0.00 | 67 | 1009.8 |
| 20260505123003 | 17 | 195 | 12.9 | 40.2 | 0.00 | 0.00 | 0.00 | 67 | 1009.6 |
| 20260505122503 | 17 | 200 | 12.9 | 30.6 | 0.00 | 0.00 | 0.00 | 66 | 1009.4 |
| 20260505122003 | 17 | 202 | 12.9 | 30.6 | 0.00 | 0.00 | 0.00 | 66 | 1009.3 |
| 20260505121503 | 17 | 202 | 12.9 | 29.0 | 0.00 | 0.00 | 0.00 | 65 | 1009.0 |
| 20260505121218 | 17 | 197 | 11.3 | 27.4 | 0.00 | 0.00 | 0.00 | 65 | 1009.0 |
| 20260505120503 | 18 | 197 | 12.9 | 35.4 | 0.00 | 0.00 | 0.00 | 64 | 1008.8 |
| 20260505120003 | 18 | 196 | 14.5 | 35.4 | 0.00 | 0.00 | 0.00 | 63 | 1008.6 |
| 20260505115503 | 18 | 194 | 14.5 | 38.6 | 0.00 | 0.00 | 0.00 | 63 | 1008.8 |
| 20260505115003 | 18 | 198 | 11.3 | 38.6 | 0.00 | 0.00 | 0.00 | 62 | 1008.9 |
| 20260505114503 | 18 | 198 | 8.0 | 19.3 | 0.00 | 0.00 | 0.00 | 63 | 1008.8 |
| 20260505114003 | 18 | 195 | 9.7 | 19.3 | 0.00 | 0.00 | 0.00 | 63 | 1008.7 |
| 20260505113503 | 18 | 202 | 9.7 | 19.3 | 0.00 | 0.00 | 0.00 | 63 | 1008.7 |
| 20260505113003 | 18 | 200 | 9.7 | 25.7 | 0.00 | 0.00 | 0.00 | 62 | 1008.8 |
| 20260505112503 | 18 | 195 | 9.7 | 25.7 | 0.00 | 0.00 | 0.00 | 62 | 1008.8 |
| 20260505112003 | 18 | 198 | 9.7 | 25.7 | 0.00 | 0.00 | 0.00 | 63 | 1008.8 |
| 20260505111503 | 18 | 199 | 9.7 | 25.7 | 0.00 | 0.00 | 0.00 | 62 | 1008.7 |
| 20260505111217 | 18 | 200 | 11.3 | 24.1 | 0.00 | 0.00 | 0.00 | 62 | 1008.6 |
| 20260505110503 | 18 | 202 | 8.0 | 19.3 | 0.00 | 0.00 | 0.00 | 62 | 1008.6 |
| 20260505110217 | 18 | 209 | 6.4 | 22.5 | 0.00 | 0.00 | 0.00 | 63 | 1008.6 |
| 20260505102003 | 18 | 220 | 8.0 | 24.1 | 0.00 | 0.00 | 0.00 | 61 | 1008.0 |
| 20260505101503 | 18 | 211 | 6.4 | 17.7 | 0.00 | 0.00 | 0.00 | 62 | 1008.0 |
| 20260505101003 | 18 | 208 | 6.4 | 20.9 | 0.00 | 0.00 | 0.00 | 61 | 1007.9 |
| 20260505100718 | 19 | 207 | 8.0 | 25.7 | 0.00 | 0.00 | 0.00 | 62 | 1007.8 |
| 20260505100003 | 19 | 200 | 9.7 | 29.0 | 0.00 | 0.00 | 0.00 | 61 | 1007.7 |
| 20260505095503 | 19 | 207 | 9.7 | 25.7 | 0.00 | 0.00 | 0.00 | 61 | 1007.6 |
| 20260505095003 | 19 | 208 | 11.3 | 25.7 | 0.00 | 0.00 | 0.00 | 61 | 1007.5 |
| 20260505094503 | 19 | 207 | 9.7 | 24.1 | 0.00 | 0.00 | 0.00 | 61 | 1007.5 |
| 20260505094003 | 19 | 200 | 9.7 | 25.7 | 0.00 | 0.00 | 0.00 | 61 | 1007.4 |
| 20260505093503 | 19 | 194 | 8.0 | 25.7 | 0.00 | 0.00 | 0.00 | 60 | 1007.3 |
| 20260505093003 | 19 | 197 | 9.7 | 24.1 | 0.00 | 0.00 | 0.00 | 60 | 1007.2 |
| 20260505092718 | 19 | 203 | 11.3 | 25.7 | 0.00 | 0.00 | 0.00 | 59 | 1007.1 |